Location: Unspecified
(0.0000°N, 0.0000°E)
Time: 22:33:19
(UTC+00:00)

Envisat - Pass Details

Date: 01 December 2022
Orbit: 763 x 765 km, 98.2° (Epoch: 02 December)

Event Time Altitude Azimuth Distance (km) Brightness Sun altitude
Exits shadow 04:14:08 50° 287° (WNW) 961 3.1 -21.9°
Maximum altitude 04:14:15 51° 282° (WNW) 960 3.1 -21.9°
Drops below altitude 10° 04:19:10 10° 207° (SSW) 2,300 5.4 -20.8°
Sets 04:21:32 0° 202° (SSW) 3,228 6.3 -20.2°
